[[{"header":{"parameterUnit":"m.s-1","parameterCategory":1,"la1":30.2992,"la2":30.254,"lo1":-89.0895,"lo2":-89.0443,"dy":0.0025,"dx":0.0025,"nx":19,"ny":19,"refTime":"2026-03-30T03:00:00:Z","depth":0,"parameterNumber":2,"parameterNumberName":"U-component_of_WINDS"},"data":[0,0,0,-4.3887,-4.389,-4.4053,-4.4053,-4.4269,-4.4271,0,0,0,0,0,0,0,0,0,0,0,-4.3843,-4.3845,-4.3886,-4.3891,-4.4053,-4.4053,-4.4269,-4.4271,0,0,0,0,0,0,0,0,0,0,0,-4.3843,-4.3845,-4.3847,-4.3891,-4.4053,-4.4054,-4.4268,-4.4143,0,0,0,0,0,0,0,0,0,0,-4.3984,-4.3948,-4.3844,-4.3847,-4.3892,-4.4053,-4.4054,-4.4137,-4.4151,-4.4199,0,-4.4243,0,-4.426,-4.4286,-4.4287,0,0,0,-4.3887,-4.3937,-4.3976,-4.3847,-4.3894,-4.4052,-4.3979,-4.4145,-4.416,-4.4218,-4.4246,-4.4254,-4.4264,-4.4287,-4.4289,-4.4577,-4.4578,0,0,-4.3878,-4.3875,-4.3965,-4.3987,-4.3962,-4.3974,-4.3984,-4.4154,-4.4185,-4.4247,-4.4259,-4.4268,-4.4289,-4.4291,-4.4576,-4.4577,0,0,0,-4.3855,-4.3869,-4.3904,-4.3978,-4.4007,-4.3978,-4.399,-4.4177,-4.4189,-4.4261,-4.427,-4.429,-4.4293,-4.4574,-4.4576,-4.4646,0,0,0,-4.3849,-4.3855,-4.39,-4.39,-4.4004,-4.4094,-4.4009,-4.4177,-4.4196,-4.4269,-4.429,-4.4295,-4.4572,-4.4575,-4.464,-4.4679,0,0,0,-4.3831,-4.3853,-4.3878,-4.39,-4.3969,-4.4091,-4.4113,-4.4181,-4.4202,-4.4287,-4.4296,-4.4571,-4.4575,-4.4636,-4.4671,-4.4752,0,0,0,-4.3811,-4.3939,-4.3879,-4.4026,-4.3968,-4.4134,-4.4112,-4.4236,-4.4317,-4.4291,-4.4573,-4.4576,-4.4634,-4.4666,-4.4747,-4.4819,-4.4849,0,0,-4.397,-4.3958,-4.4044,-4.3996,-4.4171,-4.4109,-4.4295,-4.4373,-4.4385,-4.4512,-4.4519,-4.4642,-4.467,-4.4751,-4.5023,-4.5047,0,0,0,-4.4094,-4.4155,-4.4203,-4.4279,-4.4342,-4.4399,-4.4448,-4.4477,-4.4586,-4.445,-4.4695,-4.4712,-4.476,-4.4794,-4.4814,-4.4854,-4.4592,-4.4592,-4.4592,-4.4313,-4.432,-4.4464,-4.4491,-4.4567,-4.4617,-4.4678,-4.4726,-4.4712,-4.477,-4.4807,-4.4971,-4.5011,-4.5026,-4.5068,-4.4848,-4.4848,-4.4848,-4.4849,-4.4545,-4.4633,-4.4612,-4.4743,-4.4751,-4.4862,-4.4916,-4.4903,-4.5007,-4.4944,-4.4986,-4.4914,-4.5052,-4.5089,-4.4854,-4.4853,-4.4852,-4.4852,-4.4851,-4.4687,-4.473,-4.4764,-4.4876,-4.4962,-4.4986,-4.5087,-4.5091,-4.5096,-4.5138,-4.5177,-4.5175,-4.5173,-4.5157,-4.5157,-4.5158,-4.5158,-4.5159,-4.5159,-4.482,-4.4856,-4.494,-4.5017,-4.5067,-4.5134,-4.5187,-4.5236,-4.5292,-4.5287,-4.5287,-4.5267,-4.5065,-4.5013,-4.5168,-4.5166,-4.5165,-4.5164,-4.5164,-4.5048,-4.4998,-4.5127,-4.5177,-4.5269,-4.5353,-4.5358,-4.5459,-4.55,-4.555,-4.5522,-4.5373,-4.536,-4.5344,-4.53,-4.5521,-4.5521,-4.5521,-4.5521,-4.5166,-4.5161,-4.5294,-4.5374,-4.5453,-4.547,-4.5617,-4.566,-4.5696,-4.5722,-4.5692,-4.5636,-4.5619,-4.5616,-4.5594,-4.5554,-4.5833,-4.5834,-4.5834,-4.5306,-4.5309,-4.5432,-4.5466,-4.5539,-4.5601,-4.5738,-4.583,-4.5862,-4.5847,-4.5743,-4.573,-4.5639,-4.561,-4.5589,-4.5555,-4.548,0,0]},{"header":{"parameterUnit":"m.s-1","parameterCategory":1,"la1":30.2992,"la2":30.254,"lo1":-89.0895,"lo2":-89.0443,"dy":0.0025,"dx":0.0025,"nx":19,"ny":19,"refTime":"2026-03-30T03:00:00:Z","depth":0,"parameterNumber":3,"parameterNumberName":"V-component_of_WINDS"},"data":[0,0,0,2.2557,2.2559,2.2615,2.2615,2.269,2.2691,0,0,0,0,0,0,0,0,0,0,0,2.2542,2.2543,2.2557,2.2559,2.2615,2.2615,2.269,2.2691,0,0,0,0,0,0,0,0,0,0,0,2.2542,2.2542,2.2543,2.2559,2.2615,2.2615,2.269,2.2646,0,0,0,0,0,0,0,0,0,0,2.2591,2.2578,2.2542,2.2543,2.2559,2.2615,2.2616,2.2644,2.2649,2.2666,0,2.2681,0,2.2688,2.2696,2.2696,0,0,0,2.2557,2.2574,2.2588,2.2543,2.256,2.2615,2.2589,2.2647,2.2652,2.2672,2.2682,2.2685,2.2689,2.2697,2.2697,2.2801,2.2802,0,0,2.2554,2.2553,2.2584,2.2592,2.2584,2.2587,2.2591,2.265,2.2661,2.2683,2.2687,2.269,2.2697,2.2698,2.28,2.2801,0,0,0,2.2546,2.255,2.2563,2.2589,2.2599,2.2589,2.2593,2.2658,2.2662,2.2687,2.2691,2.2698,2.2699,2.28,2.2801,2.2828,0,0,0,2.2544,2.2546,2.2562,2.2561,2.2598,2.2629,2.26,2.2658,2.2665,2.269,2.2698,2.2699,2.2799,2.28,2.2826,2.284,0,0,0,2.2538,2.2545,2.2554,2.2561,2.2586,2.2628,2.2636,2.266,2.2667,2.2697,2.27,2.2799,2.28,2.2824,2.2837,2.2868,0,0,0,2.253,2.2575,2.2554,2.2606,2.2585,2.2645,2.2636,2.268,2.2708,2.2698,2.2799,2.2801,2.2823,2.2835,2.2866,2.2894,2.2905,0,0,2.2586,2.2582,2.2612,2.2596,2.2659,2.2636,2.2703,2.273,2.2733,2.2778,2.2781,2.2826,2.2837,2.2868,2.297,2.2979,0,0,0,2.263,2.2652,2.2669,2.2697,2.272,2.2741,2.2758,2.2768,2.2807,2.2756,2.2846,2.2852,2.287,2.2884,2.2891,2.2908,2.2807,2.2807,2.2806,2.2705,2.271,2.2761,2.2773,2.2801,2.282,2.2842,2.286,2.2854,2.2875,2.2888,2.295,2.2966,2.2972,2.2988,2.2903,2.2903,2.2904,2.2904,2.2788,2.282,2.2815,2.2864,2.2868,2.2909,2.293,2.2925,2.2964,2.294,2.2956,2.2929,2.2982,2.2997,2.2906,2.2905,2.2905,2.2905,2.2905,2.2837,2.2854,2.2868,2.2911,2.2944,2.2954,2.2993,2.2995,2.2997,2.3014,2.3029,2.3028,2.3029,2.3021,2.3021,2.3021,2.3022,2.3022,2.3022,2.2883,2.2898,2.2931,2.2962,2.2982,2.3008,2.303,2.305,2.3072,2.3071,2.3071,2.3064,2.2986,2.2967,2.3025,2.3025,2.3024,2.3024,2.3024,2.2965,2.2948,2.2998,2.3019,2.3057,2.3091,2.3094,2.3135,2.3152,2.3171,2.3162,2.3104,2.3099,2.3093,2.3077,2.316,2.316,2.316,2.316,2.3007,2.3006,2.306,2.3093,2.3125,2.3135,2.3193,2.3212,2.3228,2.3239,2.3227,2.3206,2.32,2.3199,2.3191,2.3176,2.3283,2.3283,2.3283,2.3058,2.3061,2.311,2.3127,2.3158,2.3185,2.324,2.3278,2.3293,2.3288,2.3248,2.3243,2.3209,2.3197,2.319,2.3177,2.3149,0,0]}]]